QTR3253 YSSY-YBBN

Flight info

Callsign QTR3253
Flight time 1h 8m
Altitude 37000
Route OLSEM1/34R OLSEM Y193 BANDA H252 BN
Aircraft B77W/H-SDE1E3FGHIJ1J3J4J5M1P2RWXYZ/LB1D1

Departure

Time 2026-05-04 07:54
Airport Sydney Kingsford Smith International Airport (YSSY)

Arrival

Time 2026-05-04 09:03
Airport Brisbane International Airport (YBBN)
Time Latitude Longitude Altitude Speed Heading
2026-05-04 07:10 -33.94062 151.16385 34 ft 0 kts 43°
2026-05-04 07:29 -33.94071 151.16374 34 ft 2 kts 50°
2026-05-04 07:30 -33.94080 151.16359 34 ft 2 kts 57°
2026-05-04 07:30 -33.94089 151.16345 34 ft 2 kts 29°
2026-05-04 07:30 -33.94103 151.16341 34 ft 2 kts 351°
2026-05-04 07:30 -33.94117 151.16348 34 ft 2 kts 319°
2026-05-04 07:31 -33.94128 151.16360 34 ft 2 kts 318°
2026-05-04 07:31 -33.94139 151.16371 34 ft 2 kts 335°
2026-05-04 07:33 -33.94180 151.16344 34 ft 0 kts 76°
2026-05-04 07:38 -33.94170 151.16393 34 ft 12 kts 75°
2026-05-04 07:38 -33.94141 151.16510 34 ft 14 kts 72°
2026-05-04 07:38 -33.94112 151.16626 34 ft 14 kts 74°
2026-05-04 07:38 -33.94087 151.16737 34 ft 13 kts 75°
2026-05-04 07:39 -33.94063 151.16843 34 ft 12 kts 75°
2026-05-04 07:39 -33.94040 151.16942 34 ft 12 kts 74°
2026-05-04 07:39 -33.94016 151.17038 34 ft 12 kts 73°
2026-05-04 07:39 -33.93991 151.17143 34 ft 14 kts 75°
2026-05-04 07:40 -33.94038 151.17238 34 ft 19 kts 157°
2026-05-04 07:40 -33.94172 151.17278 34 ft 19 kts 167°
2026-05-04 07:40 -33.94307 151.17313 34 ft 22 kts 168°
2026-05-04 07:40 -33.94490 151.17358 34 ft 28 kts 168°
2026-05-04 07:41 -33.94638 151.17395 34 ft 19 kts 168°
2026-05-04 07:41 -33.94778 151.17433 34 ft 23 kts 167°
2026-05-04 07:41 -33.94945 151.17477 34 ft 24 kts 168°
2026-05-04 07:41 -33.95106 151.17519 34 ft 22 kts 168°
2026-05-04 07:42 -33.95179 151.17539 34 ft 0 kts 168°
2026-05-04 07:42 -33.95223 151.17549 34 ft 8 kts 166°
2026-05-04 07:42 -33.95258 151.17606 34 ft 4 kts 101°
2026-05-04 07:42 -33.95258 151.17609 34 ft 0 kts 85°
2026-05-04 07:43 -33.95258 151.17618 34 ft 5 kts 85°
2026-05-04 07:44 -33.95248 151.17693 34 ft 11 kts 77°
2026-05-04 07:44 -33.95225 151.17821 34 ft 17 kts 78°
2026-05-04 07:44 -33.95200 151.17961 34 ft 16 kts 78°
2026-05-04 07:44 -33.95176 151.18091 34 ft 15 kts 78°
2026-05-04 07:45 -33.95154 151.18216 34 ft 17 kts 78°
2026-05-04 07:45 -33.95123 151.18391 34 ft 21 kts 77°
2026-05-04 07:45 -33.95138 151.18552 34 ft 19 kts 124°
2026-05-04 07:45 -33.95229 151.18661 34 ft 17 kts 144°
2026-05-04 07:46 -33.95336 151.18724 34 ft 16 kts 165°
2026-05-04 07:46 -33.95446 151.18751 34 ft 15 kts 168°
2026-05-04 07:46 -33.95554 151.18780 34 ft 15 kts 168°
2026-05-04 07:46 -33.95655 151.18806 34 ft 16 kts 168°
2026-05-04 07:47 -33.95806 151.18848 34 ft 27 kts 167°
2026-05-04 07:47 -33.95990 151.18898 34 ft 26 kts 167°
2026-05-04 07:47 -33.96166 151.18942 34 ft 21 kts 168°
2026-05-04 07:49 -33.97047 151.19127 34 ft 11 kts 168°
2026-05-04 07:49 -33.97111 151.19170 34 ft 10 kts 123°
2026-05-04 07:49 -33.97117 151.19238 34 ft 3 kts 81°
2026-05-04 07:50 -33.97116 151.19244 34 ft 0 kts 79°
2026-05-04 07:51 -33.97113 151.19264 34 ft 6 kts 79°
2026-05-04 07:51 -33.97102 151.19334 34 ft 7 kts 79°
2026-05-04 07:51 -33.97089 151.19367 34 ft 2 kts 32°
2026-05-04 07:52 -33.97071 151.19374 34 ft 3 kts
2026-05-04 07:52 -33.97059 151.19374 34 ft 0 kts 351°
2026-05-04 07:52 -33.97058 151.19374 34 ft 1 kts 351°
2026-05-04 07:53 -33.96896 151.19331 34 ft 61 kts 348°
2026-05-04 07:54 -33.92739 151.25203 2343 ft 191 kts 36°
2026-05-04 07:55 -33.91610 151.25794 2436 ft 169 kts
2026-05-04 07:55 -33.90449 151.25877 2550 ft 166 kts
2026-05-04 07:55 -33.89221 151.25955 2777 ft 193 kts
2026-05-04 07:55 -33.87821 151.26042 3522 ft 210 kts
2026-05-04 07:56 -33.86331 151.26358 4315 ft 229 kts 17°
2026-05-04 07:56 -33.84920 151.27361 5063 ft 253 kts 38°
2026-05-04 07:56 -33.83836 151.29147 5838 ft 279 kts 62°
2026-05-04 07:56 -33.83166 151.31421 6622 ft 300 kts 68°
2026-05-04 07:57 -33.82534 151.33836 7418 ft 317 kts 68°
2026-05-04 07:57 -33.81563 151.36276 8141 ft 328 kts 52°
2026-05-04 07:57 -33.80161 151.38466 8903 ft 343 kts 46°
2026-05-04 07:57 -33.78579 151.40732 9687 ft 360 kts 46°
2026-05-04 07:58 -33.76951 151.43054 10549 ft 373 kts 46°
2026-05-04 07:58 -33.75271 151.45464 11607 ft 380 kts 46°
2026-05-04 07:58 -33.73594 151.47870 12634 ft 386 kts 46°
2026-05-04 07:58 -33.71862 151.50356 13655 ft 392 kts 46°
2026-05-04 07:59 -33.70101 151.52881 14691 ft 398 kts 46°
2026-05-04 07:59 -33.68335 151.55412 15696 ft 403 kts 46°
2026-05-04 07:59 -33.66515 151.58022 16734 ft 407 kts 45°
2026-05-04 07:59 -33.64562 151.60452 17666 ft 407 kts 37°
2026-05-04 08:00 -33.62297 151.62477 18513 ft 411 kts 30°
2026-05-04 08:00 -33.59940 151.64337 19507 ft 413 kts 29°
2026-05-04 08:00 -33.57527 151.66228 20488 ft 417 kts 28°
2026-05-04 08:02 -33.38536 151.76100 26127 ft 439 kts
2026-05-04 08:02 -33.35563 151.77057 26878 ft 444 kts
2026-05-04 08:02 -33.32557 151.78026 27590 ft 449 kts
2026-05-04 08:03 -33.29565 151.78990 28295 ft 453 kts
2026-05-04 08:03 -33.26503 151.79977 28992 ft 457 kts
2026-05-04 08:03 -33.23396 151.80977 29655 ft 462 kts
2026-05-04 08:03 -33.20321 151.81969 30339 ft 464 kts
2026-05-04 08:04 -33.17216 151.82970 31044 ft 464 kts
2026-05-04 08:04 -33.14112 151.83971 31769 ft 462 kts
2026-05-04 08:04 -33.11001 151.84972 32411 ft 462 kts
2026-05-04 08:04 -33.07899 151.85969 33039 ft 460 kts
2026-05-04 08:05 -33.04816 151.86960 33618 ft 460 kts
2026-05-04 08:05 -33.01730 151.87950 34238 ft 461 kts
2026-05-04 08:05 -32.98638 151.88942 34879 ft 460 kts
2026-05-04 08:05 -32.95591 151.89918 35500 ft 459 kts
2026-05-04 08:06 -32.92477 151.90915 36064 ft 459 kts
2026-05-04 08:06 -32.89413 151.91898 36693 ft 456 kts
2026-05-04 08:06 -32.86288 151.92896 37026 ft 459 kts
2026-05-04 08:06 -32.83158 151.93895 37034 ft 457 kts
2026-05-04 08:08 -32.58618 152.01710 37043 ft 455 kts
2026-05-04 08:11 -32.30943 152.10474 37058 ft 454 kts
2026-05-04 08:11 -32.21767 152.13365 37062 ft 457 kts
2026-05-04 08:12 -32.15562 152.15315 37065 ft 458 kts
2026-05-04 08:12 -32.09416 152.17248 37069 ft 458 kts
2026-05-04 08:13 -32.03268 152.19180 37067 ft 456 kts
2026-05-04 08:13 -31.97131 152.21101 37069 ft 456 kts
2026-05-04 08:14 -31.90980 152.23027 37070 ft 456 kts
2026-05-04 08:16 -31.66350 152.30710 37093 ft 454 kts
2026-05-04 08:16 -31.60220 152.32610 37097 ft 461 kts
2026-05-04 08:17 -31.54046 152.34532 37098 ft 454 kts
2026-05-04 08:17 -31.47916 152.36429 37102 ft 458 kts
2026-05-04 08:19 -31.23242 152.44052 37098 ft 456 kts
2026-05-04 08:20 -31.17068 152.45950 37100 ft 461 kts
2026-05-04 08:20 -31.10900 152.47849 37098 ft 458 kts
2026-05-04 08:21 -31.04725 152.49744 37097 ft 460 kts
2026-05-04 08:21 -30.98540 152.51640 37101 ft 461 kts
2026-05-04 08:22 -30.92348 152.53538 37101 ft 456 kts
2026-05-04 08:24 -30.70639 152.60658 37114 ft 470 kts
2026-05-04 08:24 -30.67526 152.61801 37116 ft 468 kts
2026-05-04 08:24 -30.61338 152.64067 37121 ft 464 kts
2026-05-04 08:25 -30.55064 152.66339 37087 ft 471 kts
2026-05-04 08:25 -30.48815 152.68608 37089 ft 466 kts
2026-05-04 08:27 -30.23923 152.77580 37117 ft 467 kts
2026-05-04 08:28 -30.17666 152.79826 37113 ft 468 kts
2026-05-04 08:28 -30.11414 152.82068 37116 ft 470 kts
2026-05-04 08:29 -30.06230 152.83926 37110 ft 467 kts
2026-05-04 08:31 -29.80093 152.93254 37105 ft 471 kts
2026-05-04 08:33 -29.55027 153.02156 37099 ft 469 kts
2026-05-04 08:35 -29.29938 153.11014 37097 ft 472 kts
2026-05-04 08:35 -29.23692 153.13214 37101 ft 471 kts
2026-05-04 08:37 -29.01785 153.20911 37097 ft 468 kts
2026-05-04 08:38 -28.95530 153.23097 37099 ft 472 kts
2026-05-04 08:38 -28.89302 153.25279 37103 ft 471 kts
2026-05-04 08:40 -28.67375 153.32925 34823 ft 473 kts
2026-05-04 08:40 -28.64229 153.34019 33998 ft 474 kts
2026-05-04 08:40 -28.61089 153.35110 33174 ft 475 kts
2026-05-04 08:41 -28.57906 153.36215 32319 ft 479 kts
2026-05-04 08:41 -28.54657 153.37338 31402 ft 491 kts
2026-05-04 08:41 -28.51377 153.38475 30576 ft 493 kts
2026-05-04 08:41 -28.48144 153.39601 30086 ft 485 kts
2026-05-04 08:42 -28.44941 153.40717 29554 ft 479 kts
2026-05-04 08:42 -28.41776 153.41817 28991 ft 473 kts
2026-05-04 08:42 -28.38658 153.42897 28414 ft 468 kts
2026-05-04 08:42 -28.35560 153.43970 27824 ft 464 kts
2026-05-04 08:43 -28.32482 153.45035 27239 ft 460 kts
2026-05-04 08:43 -28.29415 153.46094 26636 ft 456 kts 10°
2026-05-04 08:43 -28.26394 153.47137 26039 ft 452 kts 10°
2026-05-04 08:43 -28.23424 153.48163 25453 ft 448 kts 10°
2026-05-04 08:44 -28.20436 153.49165 24827 ft 442 kts
2026-05-04 08:44 -28.17456 153.49724 24222 ft 430 kts 358°
2026-05-04 08:46 -27.97751 153.46426 19963 ft 400 kts 346°
2026-05-04 08:46 -27.95012 153.45865 19350 ft 398 kts 346°
2026-05-04 08:46 -27.92292 153.45306 18721 ft 396 kts 346°
2026-05-04 08:46 -27.89618 153.44756 18106 ft 393 kts 347°
2026-05-04 08:47 -27.86927 153.44200 17488 ft 391 kts 347°
2026-05-04 08:47 -27.84248 153.43649 16877 ft 388 kts 347°
2026-05-04 08:47 -27.81618 153.43108 16254 ft 386 kts 347°
2026-05-04 08:47 -27.78987 153.42564 15655 ft 384 kts 347°
2026-05-04 08:48 -27.76372 153.42026 15044 ft 382 kts 347°
2026-05-04 08:48 -27.73751 153.41486 14421 ft 380 kts 348°
2026-05-04 08:48 -27.71164 153.40953 13810 ft 379 kts 348°
2026-05-04 08:48 -27.68545 153.40413 13203 ft 377 kts 348°
2026-05-04 08:49 -27.65998 153.39890 12609 ft 375 kts 349°
2026-05-04 08:50 -27.51909 153.39995 10818 ft 299 kts
2026-05-04 08:50 -27.49870 153.40088 10590 ft 292 kts
2026-05-04 08:51 -27.47849 153.40181 10367 ft 286 kts
2026-05-04 08:51 -27.45891 153.40269 10132 ft 280 kts
2026-05-04 08:51 -27.43936 153.40359 9881 ft 277 kts
2026-05-04 08:51 -27.42013 153.40446 9622 ft 275 kts
2026-05-04 08:52 -27.40089 153.40535 9374 ft 275 kts
2026-05-04 08:52 -27.38180 153.40622 9141 ft 274 kts
2026-05-04 08:52 -27.36292 153.40709 8908 ft 274 kts
2026-05-04 08:52 -27.34387 153.40796 8689 ft 272 kts
2026-05-04 08:53 -27.32474 153.40883 8469 ft 273 kts
2026-05-04 08:54 -27.19359 153.40956 6918 ft 270 kts 334°
2026-05-04 08:55 -27.17779 153.39793 6719 ft 272 kts 323°
2026-05-04 08:55 -27.16307 153.38449 6502 ft 272 kts 321°
2026-05-04 08:55 -27.14871 153.37097 6278 ft 269 kts 321°
2026-05-04 08:55 -27.13696 153.35489 6038 ft 265 kts 295°
2026-05-04 08:57 -27.18335 153.24322 4226 ft 219 kts 208°
2026-05-04 09:01 -27.34338 153.15199 737 ft 145 kts 204°
2026-05-04 09:01 -27.35227 153.14691 498 ft 144 kts 204°
2026-05-04 09:01 -27.36119 153.14191 321 ft 141 kts 204°
2026-05-04 09:01 -27.36999 153.13689 142 ft 141 kts 205°
2026-05-04 09:02 -27.37877 153.13193 23 ft 133 kts 206°
2026-05-04 09:02 -27.38581 153.12793 25 ft 95 kts 207°
2026-05-04 09:02 -27.39072 153.12515 25 ft 69 kts 207°
2026-05-04 09:02 -27.39474 153.12286 23 ft 60 kts 208°
2026-05-04 09:03 -27.39818 153.12087 25 ft 52 kts 207°
2026-05-04 09:03 -27.40096 153.11928 25 ft 24 kts 207°
2026-05-04 09:03 -27.40224 153.11856 25 ft 19 kts 207°
2026-05-04 09:03 -27.40313 153.11758 25 ft 17 kts 252°
2026-05-04 09:04 -27.40301 153.11632 25 ft 16 kts 293°
2026-05-04 09:04 -27.40255 153.11533 25 ft 9 kts 296°
2026-05-04 09:04 -27.40263 153.11472 26 ft 7 kts 218°
2026-05-04 09:04 -27.40308 153.11438 26 ft 6 kts 211°
2026-05-04 09:05 -27.40355 153.11412 27 ft 9 kts 206°
2026-05-04 09:05 -27.40442 153.11365 28 ft 16 kts 206°
2026-05-04 09:05 -27.40540 153.11308 28 ft 15 kts 207°
2026-05-04 09:05 -27.40634 153.11255 27 ft 15 kts 207°
2026-05-04 09:06 -27.40731 153.11200 27 ft 15 kts 207°
2026-05-04 09:07 -27.40940 153.10551 24 ft 12 kts 230°
2026-05-04 09:08 -27.40995 153.10481 25 ft 11 kts 227°
2026-05-04 09:08 -27.41053 153.10413 24 ft 12 kts 226°
2026-05-04 09:08 -27.41111 153.10345 25 ft 11 kts 226°
2026-05-04 09:08 -27.41164 153.10284 25 ft 11 kts 226°
2026-05-04 09:09 -27.41220 153.10219 24 ft 11 kts 226°
2026-05-04 09:09 -27.41275 153.10155 25 ft 10 kts 226°
2026-05-04 09:09 -27.41324 153.10097 25 ft 7 kts 226°
2026-05-04 09:09 -27.41341 153.10077 25 ft 4 kts 226°
2026-05-04 09:10 -27.41347 153.10069 25 ft 0 kts 226°
2026-05-04 09:15 -27.41350 153.10066 25 ft 2 kts 226°
2026-05-04 09:15 -27.41380 153.10031 24 ft 7 kts 226°
2026-05-04 09:15 -27.41418 153.09987 24 ft 7 kts 226°
2026-05-04 09:15 -27.41456 153.09944 23 ft 7 kts 226°
2026-05-04 09:17 -27.41677 153.09981 23 ft 4 kts 159°
2026-05-04 09:18 -27.41710 153.09981 23 ft 4 kts 193°
2026-05-04 09:18 -27.41738 153.09963 24 ft 4 kts 227°
2026-05-04 09:18 -27.41772 153.09921 24 ft 7 kts 226°
2026-05-04 09:18 -27.41810 153.09877 25 ft 7 kts 226°
2026-05-04 09:19 -27.41839 153.09840 26 ft 4 kts 226°
2026-05-04 09:19 -27.41864 153.09828 26 ft 4 kts 184°
2026-05-04 09:19 -27.41890 153.09837 26 ft 4 kts 144°
2026-05-04 09:19 -27.41917 153.09868 25 ft 5 kts 136°
2026-05-04 09:20 -27.41933 153.09886 25 ft 0 kts 136°